EUTELSAT 8 WEST B

Last updated on Thu Nov 21 2024 00:02:43 GMT+0000 (Coordinated Universal Time)

1 40875U 15039B 24325.26577118 -.00000064 00000+0 00000+0 0 9994 2 40875 0.0676 4.7711 0003816 238.0265 264.6870 1.00270311 33890
UTC large
Height (km)
Speed (km/s)
/
Latitude / Longitude
Inclination (degrees)
Orbital Period (minutes)
Azimuth
Elevation
Range (km)
Doppler Factor

Next 0 passes for location: London (51.5072 / 0.1276)

Sorry there are no passes over London.